| time (UTC) | temp F | wind direction | speed MPH | gust MPH | rain 1hr in | rain 24hr in | rain mn in | humidity % | barometer mb |
| 20260905201532 | 68 | 308 | 3.0 | 7.0 | 0.00 | 0.00 | 0.00 | 56 | 1018.4 |
| 20260905194530 | 67 | 308 | 3.0 | 8.0 | 0.00 | 0.00 | 0.00 | 57 | 1018.7 |
| 20260905193108 | 66 | 314 | 2.0 | 8.0 | 0.00 | 0.00 | 0.00 | 58 | 1018.8 |
| 20260905191532 | 65 | 5 | 3.0 | 7.0 | 0.00 | 0.00 | 0.00 | 61 | 1019.1 |
| 20260905183034 | 63 | 337 | 3.0 | 7.0 | 0.00 | 0.00 | 0.00 | 68 | 1019.7 |
| 20260905181536 | 62 | 305 | 1.0 | 4.0 | 0.00 | 0.00 | 0.00 | 72 | 1019.9 |
| 20260905180034 | 60 | 348 | 1.0 | 5.0 | 0.00 | 0.00 | 0.00 | 79 | 1020.1 |
| 20260905174534 | 59 | 339 | 2.0 | 6.0 | 0.00 | 0.00 | 0.00 | 82 | 1020.2 |
| 20260905173031 | 59 | 347 | 1.0 | 5.0 | 0.00 | 0.00 | 0.00 | 83 | 1020.2 |
| 20260905171534 | 58 | 327 | 2.0 | 5.0 | 0.00 | 0.00 | 0.00 | 84 | 1020.2 |
| 20260905164531 | 57 | 352 | 1.0 | 3.0 | 0.00 | 0.00 | 0.00 | 86 | 1020.2 |
| 20260905163034 | 57 | 179 | 0.0 | 2.0 | 0.00 | 0.00 | 0.00 | 86 | 1020.1 |
| 20260905161528 | 56 | 135 | 0.0 | 1.0 | 0.00 | 0.00 | 0.00 | 87 | 1020.0 |
| 20260905154531 | 55 | 151 | 3.0 | 4.0 | 0.00 | 0.00 | 0.00 | 89 | 1020.1 |
| 20260905151536 | 53 | 149 | 3.0 | 4.0 | 0.00 | 0.00 | 0.00 | 92 | 1020.0 |
| 20260905150031 | 53 | 149 | 2.0 | 4.0 | 0.00 | 0.00 | 0.00 | 93 | 1020.0 |
| 20260905144534 | 52 | 139 | 2.0 | 3.0 | 0.00 | 0.00 | 0.00 | 93 | 1019.9 |
| 20260905143030 | 52 | 140 | 2.0 | 6.0 | 0.00 | 0.00 | 0.00 | 92 | 1019.9 |
| 20260905141533 | 52 | 145 | 5.0 | 9.0 | 0.00 | 0.00 | 0.00 | 92 | 1019.7 |
| 20260905140031 | 52 | 151 | 5.0 | 7.0 | 0.00 | 0.00 | 0.00 | 93 | 1019.6 |
| 20260905134540 | 52 | 142 | 5.0 | 7.0 | 0.00 | 0.01 | 0.00 | 93 | 1019.4 |
| 20260905133033 | 52 | 149 | 5.0 | 8.0 | 0.00 | 0.01 | 0.00 | 93 | 1019.3 |
| 20260905131534 | 52 | 136 | 4.0 | 8.0 | 0.00 | 0.01 | 0.00 | 93 | 1019.3 |
| 20260905130035 | 52 | 135 | 3.0 | 5.0 | 0.00 | 0.01 | 0.00 | 93 | 1019.2 |
| 20260905124537 | 53 | 136 | 3.0 | 5.0 | 0.00 | 0.01 | 0.00 | 93 | 1019.2 |
| 20260905120030 | 53 | 145 | 4.0 | 7.0 | 0.00 | 0.01 | 0.00 | 93 | 1019.2 |
| 20260905113035 | 53 | 169 | 2.0 | 6.0 | 0.00 | 0.02 | 0.00 | 93 | 1019.0 |
| 20260905111534 | 53 | 150 | 3.0 | 6.0 | 0.00 | 0.02 | 0.00 | 93 | 1019.0 |
| 20260905104534 | 53 | 192 | 1.0 | 6.0 | 0.00 | 0.02 | 0.00 | 92 | 1019.0 |
| 20260905103041 | 54 | 209 | 0.0 | 2.0 | 0.00 | 0.02 | 0.00 | 91 | 1018.9 |
| 20260905103032 | 54 | 7 | 0.0 | 1.0 | 0.00 | 0.02 | 0.00 | 91 | 1018.9 |
| 20260905100144 | 55 | 15 | 0.0 | 2.0 | 0.00 | 0.02 | 0.00 | 90 | 1019.0 |
| 20260905094535 | 55 | 135 | 0.0 | 2.0 | 0.00 | 0.02 | 0.00 | 89 | 1019.1 |
| 20260905093033 | 55 | 146 | 0.0 | 2.0 | 0.00 | 0.02 | 0.00 | 89 | 1019.0 |
| 20260905091531 | 55 | 110 | 0.0 | 3.0 | 0.00 | 0.03 | 0.00 | 89 | 1018.9 |
| 20260905090037 | 55 | 151 | 1.0 | 3.0 | 0.00 | 0.03 | 0.00 | 89 | 1018.9 |
| 20260905083143 | 54 | 139 | 2.0 | 4.0 | 0.00 | 0.03 | 0.00 | 89 | 1018.8 |
| 20260905081535 | 55 | 1 | 0.0 | 2.0 | 0.00 | 0.03 | 0.00 | 88 | 1018.7 |
| 20260905074530 | 55 | 154 | 3.0 | 5.0 | 0.00 | 0.03 | 0.00 | 87 | 1018.4 |
| 20260905073030 | 56 | 337 | 0.0 | 4.0 | 0.00 | 0.03 | 0.00 | 85 | 1018.3 |
| 20260905071533 | 57 | 283 | 0.0 | 2.0 | 0.00 | 0.03 | 0.00 | 84 | 1018.1 |
| 20260905070035 | 57 | 326 | 0.0 | 2.0 | 0.00 | 0.03 | 0.00 | 84 | 1018.0 |
| 20260905064644 | 57 | 64 | 1.0 | 3.0 | 0.00 | 0.03 | 0.03 | 84 | 1017.9 |
| 20260905063035 | 57 | 208 | 0.0 | 3.0 | 0.00 | 0.03 | 0.03 | 83 | 1017.9 |
| 20260905061536 | 56 | 356 | 2.0 | 4.0 | 0.00 | 0.03 | 0.03 | 83 | 1017.9 |
| 20260905060032 | 56 | 90 | 1.0 | 4.0 | 0.00 | 0.03 | 0.03 | 83 | 1017.9 |
| 20260905053031 | 57 | 35 | 0.0 | 3.0 | 0.00 | 0.03 | 0.03 | 80 | 1017.6 |
| 20260905051531 | 57 | 118 | 2.0 | 5.0 | 0.00 | 0.03 | 0.03 | 79 | 1017.6 |
| 20260905050035 | 57 | 171 | 2.0 | 5.0 | 0.00 | 0.03 | 0.03 | 79 | 1017.6 |
| 20260905044536 | 57 | 145 | 4.0 | 6.0 | 0.00 | 0.03 | 0.03 | 80 | 1017.5 |
| 20260905043142 | 57 | 140 | 5.0 | 7.0 | 0.00 | 0.03 | 0.03 | 80 | 1017.5 |
| 20260905041605 | 56 | 145 | 4.0 | 7.0 | 0.00 | 0.03 | 0.03 | 82 | 1017.4 |
| 20260905040031 | 56 | 137 | 2.0 | 4.0 | 0.00 | 0.03 | 0.03 | 82 | 1017.4 |
| 20260905034606 | 57 | 161 | 1.0 | 5.0 | 0.00 | 0.03 | 0.03 | 80 | 1017.2 |
| 20260905033030 | 58 | 48 | 0.0 | 3.0 | 0.00 | 0.03 | 0.03 | 79 | 1017.0 |
| 20260905031534 | 59 | 69 | 2.0 | 3.0 | 0.00 | 0.03 | 0.03 | 76 | 1016.9 |
| 20260905030105 | 60 | 30 | 0.0 | 4.0 | 0.00 | 0.03 | 0.03 | 73 | 1016.8 |
| 20260905024535 | 61 | 34 | 1.0 | 3.0 | 0.00 | 0.03 | 0.03 | 71 | 1016.8 |
| 20260905023032 | 62 | 329 | 1.0 | 4.0 | 0.00 | 0.03 | 0.03 | 70 | 1016.7 |
| 20260905021532 | 62 | 320 | 0.0 | 6.0 | 0.00 | 0.03 | 0.03 | 69 | 1016.6 |
| 20260905013033 | 64 | 267 | 1.0 | 4.0 | 0.00 | 0.03 | 0.03 | 64 | 1016.0 |
| 20260905010142 | 64 | 288 | 1.0 | 6.0 | 0.00 | 0.03 | 0.03 | 66 | 1015.9 |
| 20260905004536 | 64 | 310 | 3.0 | 9.0 | 0.00 | 0.03 | 0.03 | 67 | 1015.7 |
| 20260905003037 | 64 | 308 | 2.0 | 7.0 | 0.00 | 0.05 | 0.03 | 66 | 1015.7 |
| 20260905000105 | 67 | 319 | 6.0 | 11.0 | 0.00 | 0.08 | 0.03 | 60 | 1015.4 |
| 20260904234536 | 68 | 298 | 3.0 | 12.0 | 0.00 | 0.10 | 0.03 | 54 | 1015.3 |
| 20260904233029 | 68 | 249 | 1.0 | 4.0 | 0.00 | 0.10 | 0.03 | 56 | 1015.3 |
| 20260904231643 | 66 | 275 | 1.0 | 3.0 | 0.00 | 0.10 | 0.03 | 60 | 1015.4 |
| 20260904230030 | 66 | 233 | 1.0 | 4.0 | 0.00 | 0.10 | 0.03 | 60 | 1015.3 |
| 20260904224531 | 66 | 281 | 1.0 | 3.0 | 0.00 | 0.10 | 0.03 | 59 | 1015.3 |
| 20260904223032 | 67 | 304 | 1.0 | 5.0 | 0.00 | 0.10 | 0.03 | 58 | 1015.1 |
| 20260904221608 | 67 | 316 | 1.0 | 4.0 | 0.00 | 0.10 | 0.03 | 56 | 1015.1 |
| 20260904220036 | 66 | 308 | 2.0 | 6.0 | 0.00 | 0.10 | 0.03 | 56 | 1015.1 |
| 20260904214529 | 66 | 322 | 3.0 | 6.0 | 0.00 | 0.10 | 0.03 | 55 | 1015.1 |
| 20260904213030 | 66 | 324 | 3.0 | 6.0 | 0.00 | 0.10 | 0.03 | 56 | 1015.1 |
| 20260904211534 | 65 | 337 | 3.0 | 5.0 | 0.00 | 0.10 | 0.03 | 58 | 1015.1 |
| 20260904210033 | 65 | 325 | 3.0 | 5.0 | 0.00 | 0.10 | 0.03 | 59 | 1015.0 |
| 20260904204533 | 65 | 318 | 2.0 | 4.0 | 0.00 | 0.10 | 0.03 | 59 | 1015.1 |